Weather History for West Plains, MO

Change the Weather History Date:

Monday, July 8, 2013

  Actual Average Record
Temperature  
Mean Temperature 80 °F 78 °F  
Max Temperature 92 °F 89 °F 102 °F (2012)
Min Temperature 67 °F 67 °F 52 °F (1983)
Degree Days  
Heating Degree Days 0 0  
Month to date heating degree days 0 0  
Since 1 June heating degree days 9 5  
Since 1 July heating degree days 0 0  
Cooling Degree Days 15 13  
Month to date cooling degree days 53 100  
Year to date cooling degree days 313 488  
Since 1 June cooling degree days 201 366  
Growing Degree Days 28 (Base 50)    
Moisture  
Dew Point 66 °F    
Average Humidity 66    
Maximum Humidity 93    
Minimum Humidity 38    
Precipitation  
Precipitation 0.00 in 0.12 in 1.35 in (2004)
Month to date precipitation 0.00 0.90  
Year to date precipitation 25.49 24.19  
Sea Level Pressure  
Sea Level Pressure 30.08 in    
Wind  
Wind Speed 3 mph (South)    
Max Wind Speed 13 mph    
Max Gust Speed -    
Visibility 10 miles    
Events      
T = Trace of Precipitation, MM = Missing Value Source: NWS Daily Summary

Daily Weather History Graph

Daily Weather History Graph

Search for Another Location

Airport:

Trip Planner

Search our weather history database for the weather conditions in past years. The results will help you decide how hot, cold, wet, or windy it might be!

Date:

Astronomy

Jul. 08, 2013 Rise Set
Actual Time 5:55 AM CDT 8:29 PM CDT
Civil Twilight 5:25 AM CDT 8:59 PM CDT
Nautical Twilight 4:47 AM CDT 9:37 PM CDT
Astronomical Twilight 4:05 AM CDT 10:19 PM CDT
Moon 6:23 AM CDT (7/8) 8:34 PM CDT (7/8)
Length of Visible Light 15h 34m
Length of Day
14h 33m
New Moon, 0% of the Moon is Illuminated
Jul 8
New Moon
Jul 15
First Quarter
Jul 22
Full
Jul 29
Last Quarter
Aug 6
New

Hourly Weather History & Observations

Time (CDT) Temp. Heat Index Dew Point Humidity Pressure Visibility Wind Dir Wind Speed Gust Speed Precip Events Conditions
12:53 AM 73.9 °F - 66.0 °F 76% 30.07 in 10.0 mi Calm Calm - N/A   Clear
1:53 AM 73.0 °F - 66.0 °F 79% 30.07 in 10.0 mi Calm Calm - N/A   Clear
2:53 AM 71.1 °F - 66.0 °F 84% 30.07 in 10.0 mi Calm Calm - N/A   Clear
3:53 AM 66.9 °F - 64.9 °F 93% 30.07 in 10.0 mi Calm Calm - N/A   Clear
4:53 AM 66.9 °F - 64.9 °F 93% 30.09 in 10.0 mi Calm Calm - N/A   Clear
5:53 AM 69.1 °F - 66.9 °F 93% 30.08 in 10.0 mi SSE 3.5 mph - N/A   Clear
6:53 AM 69.1 °F - 66.9 °F 93% 30.10 in 10.0 mi Calm Calm - N/A   Clear
7:53 AM 75.0 °F - 70.0 °F 84% 30.10 in 10.0 mi South 3.5 mph - N/A   Clear
8:53 AM 79.0 °F - 71.1 °F 77% 30.11 in 10.0 mi SW 8.1 mph - N/A   Clear
9:53 AM 82.0 °F 86.3 °F 71.1 °F 69% 30.12 in 10.0 mi Variable 5.8 mph - N/A   Clear
10:53 AM 84.0 °F 87.8 °F 69.1 °F 61% 30.12 in 10.0 mi WSW 5.8 mph - N/A   Clear
11:53 AM 84.9 °F 87.6 °F 66.9 °F 55% 30.11 in 10.0 mi SW 6.9 mph - N/A   Scattered Clouds
12:53 PM 88.0 °F 89.3 °F 64.0 °F 45% 30.10 in 10.0 mi Variable 4.6 mph - N/A   Partly Cloudy
1:53 PM 90.0 °F 90.6 °F 63.0 °F 40% 30.08 in 10.0 mi South 5.8 mph - N/A   Clear
2:53 PM 90.0 °F 90.6 °F 63.0 °F 40% 30.07 in 10.0 mi SSE 6.9 mph - N/A   Mostly Cloudy
3:53 PM 91.0 °F 91.9 °F 63.0 °F 39% 30.06 in 10.0 mi South 6.9 mph - N/A   Partly Cloudy
4:53 PM 89.1 °F 89.0 °F 61.0 °F 39% 30.06 in 10.0 mi South 3.5 mph - N/A   Partly Cloudy
5:53 PM 88.0 °F 89.6 °F 64.9 °F 46% 30.05 in 10.0 mi West 4.6 mph - N/A   Partly Cloudy
6:53 PM 88.0 °F 90.3 °F 66.0 °F 48% 30.04 in 10.0 mi Calm Calm - N/A   Clear
7:53 PM 84.0 °F 87.0 °F 68.0 °F 58% 30.04 in 10.0 mi Calm Calm - N/A   Clear
8:53 PM 79.0 °F - 69.1 °F 72% 30.05 in 10.0 mi Calm Calm - N/A   Clear
9:53 PM 78.1 °F - 68.0 °F 71% 30.06 in 10.0 mi Calm Calm - N/A   Clear
10:53 PM 79.0 °F - 68.0 °F 69% 30.07 in 10.0 mi SSE 3.5 mph - N/A   Clear
11:53 PM 77.0 °F - 68.0 °F 74% 30.08 in 10.0 mi South 3.5 mph - N/A   Clear